User: anonymous   Login
Location: Caltech
(34.1382°N, 118.1253°W)
Time: 20:31:21
(UTC-08:00)
Language:

Cosmos 1975 - Orbit

View from above orbital plane
View from above orbital plane
View from above satellite
View from above satellite

Ground track
Ground track

The orbit data is extracted from the following two-line orbital elements,

1 19573U 88093A   17022.51050451  .00000420  00000-0  28192-4 0  9998
2 19573  82.5223 126.4150 0015853  77.3269 282.9728 15.04023617537916
Epoch (UTC): 22 January 2017 12:15:07
Eccentricity: 0.0015853
inclination: 82.5223°
perigee height: 543 km
apogee height: 565 km
right ascension of ascending node: 126.4150°
argument of perigee: 77.3269°
revolutions per day: 15.04023617
mean anomaly at epoch: 282.9728°
orbit number at epoch: 53791

The dashed part of the orbit path shows where the satellite is in the earth's shadow,  

DLR